Keps
Threads by month
- ----- 2023 -----
- December
- November
- October
- September
- August
- July
- June
- May
- April
- March
- February
- January
- ----- 2022 -----
- December
- November
- October
- September
- August
- July
- June
- May
- April
- March
- February
- January
- ----- 2021 -----
- December
- November
- October
- September
- August
- July
- June
- May
- April
- March
- February
- January
- ----- 2020 -----
- December
- November
- October
- September
- August
- July
- June
- May
- April
- March
- February
- January
- ----- 2019 -----
- December
- November
- October
- September
- August
- July
- June
- May
- April
- March
- February
- January
- ----- 2018 -----
- December
- November
- October
- September
- August
- July
- June
- May
- April
- March
- February
- January
- ----- 2017 -----
- December
- November
- October
- September
- August
- July
- June
- May
- April
- March
- February
- January
- ----- 2016 -----
- December
- November
- October
- September
- August
- July
- June
- May
- April
- March
- February
- January
- ----- 2015 -----
- December
- November
- October
- September
- August
- July
- June
- May
- April
- March
- February
- January
- ----- 2014 -----
- December
- November
- October
- September
- August
- July
- June
- May
- April
- March
- February
- January
- ----- 2013 -----
- December
- November
- October
- September
- August
- July
- June
- May
- April
- March
- February
- January
- ----- 2012 -----
- December
- November
- October
- September
- August
- July
- June
- May
- April
- March
- February
- January
- ----- 2011 -----
- December
- November
- October
- September
- August
- July
- June
- May
- April
- March
- February
- January
- ----- 2010 -----
- December
- November
- October
- September
- August
- July
- June
- May
- April
- March
- February
- January
- ----- 2009 -----
- December
- November
- October
- September
- August
- July
- June
- May
- April
- March
- February
- January
- ----- 2008 -----
- December
- November
- October
- September
- August
- July
- June
- May
- April
- March
- February
- January
- ----- 2007 -----
- December
- November
- October
- September
- August
- July
- June
- May
- April
- March
- February
- January
- ----- 2006 -----
- December
- November
- October
- September
September 2017
- 1 participants
- 7 discussions
SB KEPS @ AMSAT $ORB17272.N
2Line Orbital Elements 17272.AMSAT
HR AMSAT ORBITAL ELEMENTS FOR AMATEUR SATELLITES IN NASA FORMAT
FROM WA5QGD FORT WORTH,TX September 29, 2017
BID: ORB17272.N
DECODE 2-LINE ELSETS WITH THE FOLLOWING KEY:
1 AAAAAU 00 0 0 BBBBB.BBBBBBBB .CCCCCCCC 00000-0 00000-0 0 DDDZ
2 AAAAA EEE.EEEE FFF.FFFF GGGGGGG HHH.HHHH III.IIII JJ.JJJJJJJJKKKKKZ
KEY: A-CATALOGNUM B-EPOCHTIME C-DECAY D-ELSETNUM E-INCLINATION F-RAAN
G-ECCENTRICITY H-ARGPERIGEE I-MNANOM J-MNMOTION K-ORBITNUM Z-CHECKSUM
TO ALL RADIO AMATEURS BT
AO-07
1 07530U 74089B 17271.89964253 -.00000010 00000-0 21401-3 0 9990
2 07530 101.6439 238.5882 0012312 119.7186 296.2641 12.53629042961627
UO-11
1 14781U 84021B 17272.21577893 .00000219 00000-0 33242-4 0 9997
2 14781 097.6866 314.0369 0007703 210.1400 149.9371 14.82935648784762
LO-19
1 20442U 90005G 17272.26085726 .00000044 00000-0 32224-4 0 9996
2 20442 098.5808 207.7429 0011335 195.2631 164.8213 14.32871718446464
HUBBLE
1 20580U 90037B 17272.28233917 .00000972 00000-0 49013-4 0 9997
2 20580 028.4704 039.6375 0002542 209.7872 339.4707 15.08865370305939
MET-2/21
1 22782U 93055A 17272.13527993 .00000018 00000-0 29559-5 0 9995
2 22782 082.5470 301.0950 0023346 137.0866 254.8402 13.83801996215805
AO-27
1 22825U 93061C 17271.95761678 .00000046 00000-0 35680-4 0 9991
2 22825 098.8250 238.8782 0009053 034.7931 325.3841 14.30007650252231
IO-26
1 22826U 93061D 17271.89486086 .00000038 00000-0 32429-4 0 9991
2 22826 098.8192 238.8843 0009441 025.3527 334.8116 14.30337175252152
FO-29
1 24278U 96046B 17272.13144874 -.00000047 00000-0 -13879-4 0 9994
2 24278 098.5457 141.4788 0351339 068.0810 295.7289 13.53078794042682
NOAA-15
1 25338U 98030A 17272.21472245 .00000038 00000-0 35072-4 0 9999
2 25338 098.7817 283.3299 0009474 264.3176 095.6923 14.25818219007576
GO-32
1 25397U 98043D 17271.93261063 .00000014 00000-0 25001-4 0 9995
2 25397 098.6173 212.1177 0002355 071.9020 288.2415 14.23629588998337
ISS
1 25544U 98067A 17272.22914821 .00005385 00000-0 88903-4 0 9991
2 25544 51.6429 239.6594 0004085 324.8164 178.9234 15.54009631 77936
NO-44
1 26931U 01043C 17272.21557999 -.00000005 00000-0 30018-4 0 9997
2 26931 067.0516 182.7856 0006141 257.2458 102.7957 14.30475601835154
SO-50
1 27607U 02058C 17272.18749805 .00000184 00000-0 47188-4 0 9993
2 27607 064.5556 167.7478 0034119 045.3050 315.0822 14.75368176794324
CO-55
1 27844U 03031E 17271.99796112 .00000095 00000-0 62729-4 0 9998
2 27844 098.6908 279.4976 0010662 051.5098 308.7035 14.22062474739034
CO-57
1 27848U 03031J 17271.81481409 .00000080 00000-0 56497-4 0 9992
2 27848 098.7000 279.6190 0010656 060.9407 299.2837 14.21673896738895
RS-22
1 27939U 03042A 17272.29346639 .00000306 00000-0 63451-4 0 9992
2 27939 097.9545 053.7708 0011689 254.2403 187.0730 14.66605890748433
NOAA-18
1 28654U 05018A 17272.26502341 .00000015 00000-0 33166-4 0 9990
2 28654 099.1771 296.9944 0015047 137.3860 222.8481 14.12350590636854
CO-58
1 28895U 05043F 17271.96546234 .00000334 00000-0 73171-4 0 9994
2 28895 097.8773 069.5502 0017078 170.9422 189.2092 14.63443696635663
Falconsat-3
1 30776U 07006E 17272.00448185 .00008525 00000-0 26264-3 0 9998
2 30776 035.4348 127.7238 0003171 206.0154 154.0412 15.32923508584194
CO-65
1 32785U 08021C 17272.21039053 .00000540 00000-0 64471-4 0 9993
2 32785 097.5621 291.7086 0013153 177.0950 183.0346 14.87961088510296
AAUSAT2
1 32788U 08021F 17272.05131823 .00001375 00000-0 13389-3 0 9994
2 32788 097.5509 304.0819 0013042 137.9545 222.2679 14.94016483511180
DO-64
1 32789U 08021G 17272.20787634 .00003861 00000-0 27397-3 0 9995
2 32789 097.5494 328.2097 0014607 106.6304 253.6527 15.05247187512411
CO-66
1 32791U 08021J 17271.98091019 .00000721 00000-0 79513-4 0 9997
2 32791 097.5575 296.1696 0013930 161.8815 198.2902 14.90324664510520
RS-30
1 32953U 08025A 17272.18910354 .00000006 00000-0 -28032-4 0 9993
2 32953 082.5062 174.9926 0020206 058.6797 301.6257 12.43079288424342
PRISM
1 33493U 09002B 17272.18919229 .00002086 00000-0 19197-3 0 9999
2 33493 098.1532 158.9362 0016940 097.3048 263.0125 14.95842086471320
NOAA-19
1 33591U 09005A 17272.20681725 .00000144 00000-0 10365-3 0 9992
2 33591 099.1053 240.5715 0013775 344.2862 015.7879 14.12215210445072
TISAT-1
1 36799U 10035E 17272.13630024 .00000935 00000-0 10174-3 0 9994
2 36799 098.0742 037.0491 0012041 352.1742 007.9285 14.90517504391068
JUGNU
1 37839U 11058B 17272.14099545 .00000319 00000-0 28017-4 0 9996
2 37839 019.9604 180.1552 0018877 248.6970 258.2868 14.12594684308419
SRMSAT
1 37841U 11058D 17272.20740073 .00000333 00000-0 37800-4 0 9991
2 37841 019.9713 223.5779 0012023 143.4778 345.7450 14.10585046307981
AO-71
1 37854U 11061E 17271.74924457 .00004036 00000-0 22002-3 0 9998
2 37854 101.6922 198.0227 0166456 128.2996 233.3318 15.04428851322507
HRBE
1 37855U 11061F 17271.76381462 .00003169 00000-0 17128-3 0 9993
2 37855 101.7043 195.7846 0179748 135.4136 226.1695 15.03394265321886
ALMASAT-1
1 38078U 12006B 17272.25390501 .00046511 40520-5 49218-3 0 9999
2 38078 069.4311 211.4745 0290602 137.7342 224.6638 15.26704944300648
HORYU-2
1 38340U 12025D 17272.05578449 .00000481 00000-0 79003-4 0 9995
2 38340 098.3786 279.6499 0010907 327.4196 032.6338 14.75405416278195
RS-40
1 38735U 12041C 17272.23840499 .00000028 00000-0 12752-3 0 9992
2 38735 082.4721 259.2986 0017120 157.7785 202.4039 12.42574949234594
BEESAT-3
1 39134U 13015E 17272.11402563 .00005267 00000-0 26102-3 0 9995
2 39134 064.8650 250.9066 0038671 247.6436 112.0591 15.18206787244875
BEESAT-2
1 39136U 13015G 17271.99725024 .00003544 00000-0 19441-3 0 9996
2 39136 064.8703 263.4539 0034039 267.5586 092.1642 15.15401006244616
ZACUBE-1
1 39417U 13066B 17272.09099293 .00000484 00000-0 67727-4 0 9999
2 39417 097.6199 309.2418 0057825 290.5391 068.9623 14.80777305208152
TRITON-1
1 39427U 13066M 17271.96812134 .00000544 00000-0 94872-4 0 9990
2 39427 097.6375 280.3682 0114703 017.0609 343.4403 14.67520403206070
GOMX-1
1 39430U 13066Q 17271.94339733 .00000528 00000-0 10432-3 0 9992
2 39430 097.6719 263.1049 0153307 075.5119 286.3035 14.58926464205061
LO-74
1 39440U 13066AA 17272.07107729 .00000479 00000-0 74065-4 0 9994
2 39440 097.6222 297.5982 0079760 324.1967 035.3911 14.75518272206218
AO-73
1 39444U 13066AE 17272.08639093 .00000591 00000-0 79899-4 0 9998
2 39444 097.6214 310.4254 0056970 286.8536 072.6435 14.81524305206401
SPROUT
1 39770U 14029E 17272.24341629 .00003037 00000-0 34990-3 0 9993
2 39770 097.8748 010.6181 0008493 355.9215 004.1971 14.86422001181596
DUCHIFAT-1
1 40021U 14033M 17271.99062428 .00001154 00000-0 12543-3 0 9995
2 40021 097.9128 185.2813 0012343 325.4512 034.5902 14.90012694178058
NANOSATCBR1
1 40024U 14033Q 17271.97296294 .00001002 00000-0 11158-3 0 9999
2 40024 097.9081 183.9842 0011640 327.3903 032.6594 14.89320729177470
EO-79
1 40025U 14033R 17272.21009343 .00000776 00000-0 89483-4 0 9999
2 40025 097.9059 183.1052 0011868 329.8524 030.2009 14.88507654177961
DTUSAT-2
1 40030U 14033W 17271.97277993 .00000735 00000-0 85819-4 0 9999
2 40030 097.9020 181.8730 0011227 325.2486 034.7996 14.88125613177379
EO-80
1 40032U 14033Y 17272.22125585 .00000771 00000-0 89916-4 0 9991
2 40032 097.9026 182.1260 0011152 324.7869 035.2610 14.88061956177395
ANTELSAT
1 40034U 14033AA 17272.09735012 .00000523 00000-0 85723-4 0 9997
2 40034 097.8434 152.7268 0058226 319.9136 039.7783 14.73763433175690
VELOX-1
1 40057U 14034E 17272.14085838 .00001062 00000-0 15739-3 0 9991
2 40057 098.1920 013.9514 0012402 087.0633 273.2012 14.77212314175109
DAURIA DX 1
1 40071U 14037C 17272.24295246 .00000481 00000-0 69439-4 0 9998
2 40071 098.3459 027.4995 0009741 080.2681 279.9653 14.81060821174378
